Weather History for Squamish, BC

Change the Weather History Date:

Thursday, March 21, 2013

  Actual Average Record
Temperature  
Mean Temperature 38 °F -  
Max Temperature 47 °F - - ()
Min Temperature 30 °F - - ()
Degree Days  
Heating Degree Days 26    
Moisture  
Dew Point 31 °F    
Average Humidity 79    
Maximum Humidity 100    
Minimum Humidity 36    
Precipitation  
Precipitation 0.00 in - - ()
Sea Level Pressure  
Sea Level Pressure 30.05 in    
Wind  
Wind Speed 3 mph ()    
Max Wind Speed 12 mph    
Max Gust Speed 18 mph    
T = Trace of Precipitation, MM = Missing Value Source: Averaged Metar Reports

Daily Weather History Graph

Daily Weather History Graph

Search for Another Location

Airport:

Trip Planner

Search our weather history database for the weather conditions in past years. The results will help you decide how hot, cold, wet, or windy it might be!

Date:

Astronomy

Mar. 21, 2013 Rise Set
Actual Time 7:12 AM PDT 7:27 PM PDT
Civil Twilight 6:40 AM PDT 7:59 PM PDT
Nautical Twilight 6:02 AM PDT 8:38 PM PDT
Astronomical Twilight 5:23 AM PDT 9:17 PM PDT
Moon 1:36 PM PDT (3/21) 4:05 AM PDT (3/21)
Length of Visible Light 13h 19m
Length of Day
12h 15m
Waxing Gibbous, 69% of the Moon is Illuminated
Mar 21
Waxing Gibbous
Mar 27
Full
Apr 2
Last Quarter
Apr 10
New
Apr 18
First Quarter

Hourly Weather History & Observations

Time (PDT) Temp. Windchill Dew Point Humidity Pressure Visibility Wind Dir Wind Speed Gust Speed Precip Events Conditions
12:00 AM 38.1 °F - 36.5 °F 94% 29.85 in - ESE 2.3 mph - N/A   Unknown
1:00 AM 36.7 °F - 35.6 °F 96% 29.88 in - East 1.2 mph - N/A   Unknown
2:00 AM 36 °F - 35 °F 96% 29.92 in - SE 2.3 mph - -  
2:00 AM 35.8 °F - 35.2 °F 98% 29.92 in - SE 2.3 mph - N/A   Unknown
3:00 AM 35.4 °F - 35.1 °F 99% 29.95 in - SSE 1.2 mph - N/A   Unknown
4:00 AM 35.1 °F - 34.7 °F 99% 29.99 in - Calm Calm - N/A   Unknown
5:00 AM 34 °F - 33 °F 97% 30.00 in - ENE 1.2 mph - -  
5:00 AM 33.8 °F - 33.4 °F 99% 30.00 in - ENE 1.2 mph - N/A   Unknown
6:00 AM 33.6 °F - 33.4 °F 99% 30.02 in - East 1.2 mph - N/A   Unknown
7:00 AM 31.8 °F - 31.6 °F 99% 30.04 in - East 2.3 mph - N/A   Unknown
8:00 AM 32 °F - 32 °F 98% 30.06 in - NNE 1.2 mph - -  
8:00 AM 31.6 °F - 31.6 °F 100% 30.06 in - NNE 1.2 mph - N/A   Unknown
9:00 AM 35.1 °F - 34.3 °F 97% 30.07 in - Calm Calm - N/A   Unknown
10:00 AM 39.9 °F - 31.3 °F 71% 30.08 in - NNW 2.3 mph - N/A   Unknown
11:00 AM 44 °F - 30 °F 47% 30.08 in - NNW 3.5 mph - -  
11:00 AM 43.5 °F 41.9 °F 30.4 °F 60% 30.08 in - NNW 3.5 mph - N/A   Unknown
12:00 PM 44.4 °F 40.0 °F 26.8 °F 50% 30.09 in - SSE 8.1 mph - N/A   Unknown
1:00 PM 46.4 °F 41.5 °F 27.9 °F 48% 30.09 in - South 10.4 mph - N/A   Unknown
2:00 PM 47 °F - 28 °F 36% 30.07 in - SSE 11.5 mph - -  
2:00 PM 46.6 °F - 28.4 °F 49% 30.07 in - SSE 11.5 mph 17.3 mph N/A   Unknown
3:00 PM 45.9 °F 41.2 °F 29.8 °F 54% 30.06 in - SE 9.2 mph 18.4 mph N/A   Unknown
4:00 PM 44.4 °F 40.0 °F 28.8 °F 54% 30.06 in - SE 8.1 mph - N/A   Unknown
5:00 PM 44 °F - 28 °F 41% 30.07 in - SE 4.6 mph - -  
5:00 PM 44.1 °F 41.5 °F 28.0 °F 53% 30.07 in - SE 4.6 mph - N/A   Unknown
6:00 PM 41.4 °F - 31.5 °F 68% 30.08 in - ESE 2.3 mph - N/A   Unknown
7:00 PM 39.6 °F - 30.7 °F 71% 30.09 in - East 2.3 mph - N/A   Unknown
8:00 PM 35 °F - 32 °F 83% 30.11 in - SSE 1.2 mph - -  
8:00 PM 35.4 °F - 31.8 °F 87% 30.11 in - SSE 1.2 mph - N/A   Unknown
9:00 PM 33.6 °F - 31.3 °F 91% 30.13 in - ENE 1.2 mph - N/A   Unknown
10:00 PM 33.6 °F - 31.8 °F 93% 30.14 in - NNE 1.2 mph - N/A   Unknown
11:00 PM 31 °F - 30 °F 94% 30.15 in - NE 2.3 mph - -  
11:00 PM 31.1 °F - 30.0 °F 96% 30.15 in - NE 2.3 mph - N/A   Unknown